Wakefield, VA

9:56 AM EDT on October 22, 2019 (GMT -0400)
Wakefield Municipal

Weather History for KAKQ - June, 2019

Change the Weather History Date:

Friday, June 7, 2019

  Actual Average (KJGG) Record (KJGG)
Temperature  
Mean Temperature 76 °F -  
Max Temperature 82 °F 82 °F 102 °F (2008)
Min Temperature 72 °F 61 °F 48 °F (1991)
Cooling Degree Days 12    
Growing Degree Days 26 (Base 50)    
Moisture  
Dew Point 70 °F    
Average Humidity 89    
Maximum Humidity 93    
Minimum Humidity 74    
Precipitation  
Precipitation 4.45 in - - ()
Sea Level Pressure  
Sea Level Pressure 29.86 in    
Wind  
Wind Speed 3 mph (ENE)    
Max Wind Speed 14 mph    
Max Gust Speed 24 mph    
Visibility 2 miles    
Events Fog , Rain , Thunderstorm    
Averages and records for this station are not official NWS values.
T = Trace of Precipitation, MM = Missing Value Source: NWS Daily Summary

Daily Weather History Graph

Daily Weather History Graph

Search for Another Location

Airport or City:

Astronomy

Jun. 07, 2019 Rise Set
Actual Time 5:48 AM EDT 8:25 PM EDT
Civil Twilight 5:17 AM EDT 8:56 PM EDT
Nautical Twilight 4:39 AM EDT 9:34 PM EDT
Astronomical Twilight 3:57 AM EDT 10:16 PM EDT
Moon 10:01 AM EDT (6/7) No Moon Set
Length of Visible Light 15h 38m
Length of Day
14h 37m
Waxing Crescent, 22% of the Moon is Illuminated
Jun 7
Waxing Crescent
Jun 10
First Quarter
Jun 17
Full
Jun 25
Last Quarter
Jul 2
New

Hourly Weather History & Observations

Time (EDT) Temp. Heat Index Dew Point Humidity Pressure Visibility Wind Dir Wind Speed Gust Speed Precip Events Conditions
12:54 AM 73.9 °F - 70.0 °F 87% 29.83 in 6.0 mi SW 3.5 mph - 0.00 in   Overcast
1:54 AM 73.0 °F - 69.1 °F 87% 29.83 in 6.0 mi West 5.8 mph - N/A   Overcast
2:18 AM 73.0 °F - 69.1 °F 87% 29.82 in 1.8 mi Calm Calm - 0.02 in Rain Rain
2:27 AM 73.0 °F - 69.1 °F 87% 29.82 in 3.0 mi Calm Calm - 0.03 in Rain Light Rain
2:54 AM 72.0 °F - 70.0 °F 93% 29.82 in 5.0 mi SW 5.8 mph - 0.04 in   Scattered Clouds
3:54 AM 72.0 °F - 70.0 °F 93% 29.81 in 4.0 mi Calm Calm - N/A   Scattered Clouds
4:54 AM 72.0 °F - 69.1 °F 91% 29.81 in 4.0 mi Calm Calm - N/A   Scattered Clouds
5:54 AM 72.0 °F - 69.1 °F 91% 29.83 in 4.0 mi South 3.5 mph - N/A   Scattered Clouds
6:54 AM 72.0 °F - 69.1 °F 91% 29.84 in 3.0 mi Calm Calm - N/A   Mostly Cloudy
7:11 AM 72.0 °F - 70.0 °F 93% 29.84 in 2.0 mi Calm Calm - N/A   Mostly Cloudy
7:39 AM 73.0 °F - 69.1 °F 87% 29.85 in 4.0 mi Calm Calm - N/A   Mostly Cloudy
7:54 AM 73.0 °F - 69.1 °F 87% 29.85 in 3.0 mi Calm Calm - N/A   Mostly Cloudy
8:54 AM 75.0 °F - 70.0 °F 84% 29.85 in 4.0 mi Calm Calm - N/A   Haze
9:54 AM 77.0 °F - 70.0 °F 79% 29.85 in 5.0 mi Variable 3.5 mph - 0.00 in   Haze
10:54 AM 79.0 °F - 71.1 °F 77% 29.86 in 5.0 mi Variable 3.5 mph - N/A   Haze
11:54 AM 78.1 °F - 70.0 °F 76% 29.87 in 4.0 mi Calm Calm - 0.00 in Rain Light Rain
12:47 PM 78.1 °F - 72.0 °F 81% 29.86 in 3.0 mi NNW 3.5 mph - 0.01 in Rain Light Rain
12:54 PM 78.1 °F - 73.0 °F 84% 29.86 in 3.0 mi NNW 3.5 mph - 0.01 in Rain Light Rain
1:54 PM 79.0 °F - 73.0 °F 82% 29.84 in 4.0 mi NE 3.5 mph - 0.00 in Rain Light Rain
2:13 PM 80.1 °F 84.2 °F 73.0 °F 79% 29.84 in 4.0 mi Variable 3.5 mph - 0.00 in   Haze
2:38 PM 81.0 °F 85.8 °F 73.0 °F 77% 29.84 in 5.0 mi Variable 3.5 mph - 0.00 in   Haze
2:54 PM 81.0 °F 85.2 °F 72.0 °F 74% 29.83 in 5.0 mi East 5.8 mph - 0.00 in   Haze
3:30 PM 80.1 °F 83.8 °F 72.0 °F 76% 29.83 in 5.0 mi Variable 4.6 mph - N/A Thunderstorm Unknown
3:54 PM 78.1 °F - 72.0 °F 81% 29.82 in 4.0 mi Variable 3.5 mph - 0.00 in Rain , Thunderstorm Light Thunderstorms and Rain
4:04 PM 78.1 °F - 72.0 °F 81% 29.82 in 4.0 mi Calm Calm - 0.00 in Rain , Thunderstorm Light Thunderstorms and Rain
4:07 PM 77.0 °F - 72.0 °F 84% 29.83 in 1.2 mi Calm Calm - 0.00 in Rain , Thunderstorm Light Thunderstorms and Rain
4:09 PM 77.0 °F - 72.0 °F 84% 29.83 in 0.8 mi NW 4.6 mph - 0.01 in Rain , Thunderstorm Light Thunderstorms and Rain
4:15 PM 75.0 °F - 72.0 °F 90% 29.84 in 0.2 mi NW 6.9 mph - 0.14 in Fog , Rain , Thunderstorm Heavy Thunderstorms and Rain
4:28 PM 73.0 °F - 71.1 °F 93% 29.84 in 0.2 mi North 13.8 mph 21.9 mph 1.10 in Fog , Rain , Thunderstorm Heavy Thunderstorms and Rain
4:36 PM 73.0 °F - 71.1 °F 93% 29.86 in 0.2 mi NNE 12.7 mph 24.2 mph 1.72 in Fog , Rain Heavy Rain
4:54 PM 72.0 °F - 70.0 °F 93% 29.85 in 0.2 mi Variable 6.9 mph 19.6 mph 3.16 in Fog , Rain Heavy Rain
4:57 PM 72.0 °F - 70.0 °F 93% 29.85 in 0.2 mi East 10.4 mph 19.6 mph 0.09 in Fog , Rain Heavy Rain
5:07 PM 72.0 °F - 70.0 °F 93% 29.86 in 0.2 mi Variable 4.6 mph - 0.22 in Fog , Rain Heavy Rain
5:15 PM 73.0 °F - 71.1 °F 93% 29.86 in 0.8 mi Variable 4.6 mph - 0.26 in Rain Heavy Rain
5:29 PM 73.0 °F - 71.1 °F 93% 29.86 in 1.2 mi Calm Calm - 0.30 in Rain Light Rain
5:36 PM 73.0 °F - 70.0 °F 90% 29.86 in 0.8 mi East 3.5 mph - 0.32 in Rain Heavy Rain
6:07 PM 73.0 °F - 71.1 °F 93% 29.86 in 0.5 mi Variable 3.5 mph - 0.09 in Fog , Rain Heavy Rain
6:11 PM 73.0 °F - 71.1 °F 93% 29.86 in 0.2 mi Variable 4.6 mph - 0.14 in Fog , Rain Heavy Rain
6:16 PM 73.0 °F - 71.1 °F 93% 29.86 in 0.2 mi Variable 3.5 mph - 0.29 in Fog , Rain Heavy Rain
6:24 PM 73.0 °F - 71.1 °F 93% 29.86 in 0.2 mi East 5.8 mph - 0.49 in Fog , Rain Heavy Rain
6:35 PM 73.0 °F - 71.1 °F 93% 29.86 in 0.2 mi ENE 3.5 mph - 0.72 in Fog , Rain Heavy Rain
6:43 PM 73.0 °F - 70.0 °F 90% 29.86 in 0.5 mi Variable 3.5 mph - 0.83 in Fog , Rain Heavy Rain
6:54 PM 72.0 °F - 70.0 °F 93% 29.86 in 0.8 mi East 6.9 mph - 0.90 in Rain Rain
7:11 PM 72.0 °F - 70.0 °F 93% 29.86 in 1.2 mi Variable 6.9 mph - 0.06 in Rain Rain
7:18 PM 72.0 °F - 70.0 °F 93% 29.86 in 1.5 mi Variable 5.8 mph - 0.07 in Rain Rain
7:32 PM 72.0 °F - 70.0 °F 93% 29.87 in 2.0 mi Variable 3.5 mph - 0.09 in Rain Light Rain
7:36 PM 72.0 °F - 70.0 °F 93% 29.87 in 2.0 mi ENE 4.6 mph - 0.09 in Rain Light Rain
7:45 PM 72.0 °F - 70.0 °F 93% 29.88 in 2.0 mi East 4.6 mph - 0.10 in Rain Light Rain
7:54 PM 72.0 °F - 70.0 °F 93% 29.88 in 2.0 mi Variable 5.8 mph - 0.11 in Rain Light Rain
8:00 PM 72.0 °F - 70.0 °F 93% 29.88 in 3.0 mi East 4.6 mph - 0.00 in Rain Light Rain
8:07 PM 72.0 °F - 70.0 °F 93% 29.88 in 3.0 mi East 6.9 mph - 0.00 in Rain Light Rain
8:54 PM 72.0 °F - 69.1 °F 91% 29.88 in 3.0 mi East 3.5 mph - 0.01 in Rain Light Rain
9:34 PM 72.0 °F - 70.0 °F 93% 29.90 in 2.5 mi East 3.5 mph - 0.02 in Rain Light Rain
9:54 PM 72.0 °F - 70.0 °F 93% 29.90 in 2.0 mi East 3.5 mph - 0.04 in Rain Rain
10:17 PM 72.0 °F - 70.0 °F 93% 29.91 in 2.0 mi East 3.5 mph - 0.04 in Rain Rain
10:25 PM 72.0 °F - 70.0 °F 93% 29.91 in 1.8 mi Variable 3.5 mph - 0.06 in Rain Rain
10:45 PM 72.0 °F - 70.0 °F 93% 29.92 in 2.5 mi East 4.6 mph - 0.10 in Rain Light Rain
10:54 PM 72.0 °F - 70.0 °F 93% 29.92 in 3.0 mi East 4.6 mph - 0.11 in Rain Light Rain
11:02 PM 72.0 °F - 70.0 °F 93% 29.92 in 3.0 mi East 3.5 mph - 0.00 in Rain Light Rain
11:11 PM 72.0 °F - 70.0 °F 93% 29.92 in 3.0 mi East 3.5 mph - 0.01 in Rain Light Rain
11:24 PM 72.0 °F - 69.1 °F 91% 29.92 in 3.0 mi Calm Calm - 0.01 in Rain Light Rain
11:27 PM 72.0 °F - 70.0 °F 93% 29.92 in 2.5 mi Calm Calm - 0.02 in Rain Light Rain
11:54 PM 72.0 °F - 70.0 °F 93% 29.92 in 2.0 mi Calm Calm - 0.07 in Rain Light Rain